Vertical_Velocity
6 9 9 14 7 -2 4 3 -3 1 1 1 1 -1 -0 -0 1 0 -1 2 5 -0
0 19 6 1 1 -2 0 5 4 1 2 0 -1 1 1 1 5 -2 -2 -1 -1 3
-1 2 8 -0 3 14 8 12 1 2 3 3 -2 -2 -0 3 2 2 0 -1 4 2
2 2 1 6 3 9 8 14 6 3 1 0 1 1 -2 2 2 1 -0 3 3 1
-2 -2 2 -2 -3 13 10 3 6 2 -3 -1 1 0 1 2 0 1 5 4 5 2
-5 -2 -2 -2 -0 3 5 -0 2 -2 2 3 2 3 2 2 2 -0 2 2 1 1
-5 -3 -0 -1 -4 3 2 2 2 1 -5 -3 2 -4 1 1 1 1 -0 -0 1 -1
2 3 -2 1 -0 -1 -1 4 11 11 14 26 11 2 -0 -0 2 2 5 2 1 1
-3 -3 0 -3 2 -0 -6 4 10 9 6 7 15 3 -3 -0 0 2 -2 2 2 2
-2 -5 -7 -2 1 2 -1 -7 3 5 13 6 4 14 5 4 0 1 -1 2 1 2
-1 1 1 -2 2 3 1 2 1 0 1 9 -2 9 3 9 1 3 1 3 2 -0
3 4 8 3 -2 -4 -1 2 -2 1 -1 -2 8 0 3 23 7 4 2 4 1 3
2 -0 -7 -6 5 0 -2 1 2 -1 3 0 6 5 -1 5 6 3 0 2 7 7
5 -0 -0 -2 -2 -5 -5 -2 0 1 -2 2 5 4 3 0 8 7 10 0 -0 4
Height
5572 5584 5593 5605 5611 5620 5629 5636 5642 5650 5658 5666 5672 5676 5683 5688 5694 5699 5704 5709 5713 5717
5555 5566 5574 5584 5594 5607 5614 5621 5629 5637 5644 5651 5659 5666 5672 5678 5685 5689 5695 5699 5704 5708
5537 5546 5557 5567 5581 5592 5599 5605 5614 5624 5632 5640 5646 5653 5660 5667 5673 5679 5684 5689 5695 5700
5518 5528 5539 5551 5561 5573 5583 5590 5599 5608 5618 5627 5634 5641 5648 5656 5662 5667 5671 5679 5685 5690
5501 5511 5522 5531 5544 5553 5567 5576 5585 5593 5602 5611 5620 5628 5636 5643 5650 5657 5663 5669 5676 5680
5484 5494 5504 5515 5527 5536 5549 5562 5569 5579 5588 5596 5605 5614 5623 5631 5637 5644 5650 5657 5663 5668
5468 5477 5486 5498 5510 5520 5534 5544 5554 5563 5574 5583 5591 5600 5608 5617 5624 5630 5637 5644 5650 5657
5452 5460 5470 5480 5492 5505 5517 5527 5540 5550 5559 5568 5576 5585 5594 5602 5610 5618 5625 5632 5638 5645
5436 5445 5453 5463 5474 5486 5499 5510 5522 5532 5543 5552 5562 5571 5579 5588 5595 5603 5611 5619 5626 5631
5422 5430 5440 5449 5457 5469 5481 5493 5503 5515 5527 5537 5547 5556 5564 5573 5581 5589 5596 5604 5612 5620
5406 5416 5425 5435 5443 5453 5463 5474 5486 5498 5509 5520 5531 5539 5548 5557 5566 5574 5583 5591 5599 5605
5391 5400 5409 5419 5429 5437 5446 5457 5468 5480 5492 5503 5513 5522 5532 5541 5549 5558 5568 5577 5585 5593
5381 5390 5400 5409 5416 5423 5431 5440 5450 5462 5473 5485 5494 5505 5515 5524 5533 5543 5552 5562 5570 5578
5371 5379 5388 5396 5404 5411 5418 5425 5434 5446 5456 5468 5477 5487 5498 5507 5517 5526 5535 5545 5554 5562